This is the latest recevied weather packets stored in our database for station/object KI4BSX. If no packets are shown the sender has not sent any weather packets the latest 1 day(s).
| Time | Temp. | Humidity | Pressure | Rain* | Wind** | Luminosity | Snow |
|---|---|---|---|---|---|---|---|
| 1777997133 | 24.44° C | 49% | 1018.9 hPa | 0 mm | 0.45 m/s, 132° | - | - |
| 1777996830 | 23.89° C | 51% | 1019 hPa | 0 mm | 2.24 m/s, 300° | - | - |
| 1777996526 | 23.33° C | 53% | 1019.1 hPa | 0 mm | 0.89 m/s, 316° | - | - |
| 1777996223 | 23.33° C | 55% | 1019.2 hPa | 0 mm | 0.45 m/s, 322° | - | - |
| 1777995919 | 23.33° C | 56% | 1019.2 hPa | 0 mm | 0.45 m/s, 306° | - | - |
| 1777995615 | 23.89° C | 57% | 1019.4 hPa | 0 mm | 2.24 m/s, 323° | - | - |
| 1777995313 | 23.33° C | 60% | 1019.4 hPa | 0 mm | 0 m/s | - | - |
| 1777995009 | 22.78° C | 61% | 1019.4 hPa | 0 mm | 0.45 m/s, 131° | - | - |
| 1777994706 | 22.78° C | 62% | 1019.5 hPa | 0 mm | 0.89 m/s, 64° | - | - |
| 1777994402 | 22.78° C | 62% | 1019.5 hPa | 0 mm | 0.89 m/s, 354° | - | - |
| 1777994097 | 22.22° C | 63% | 1019.6 hPa | 0 mm | 0.89 m/s, 292° | - | - |
| 1777993795 | 22.78° C | 65% | 1019.4 hPa | 0 mm | 0.89 m/s, 346° | - | - |
| 1777993491 | 22.22° C | 65% | 1019.3 hPa | 0 mm | 0.45 m/s, 80° | - | - |
| 1777993191 | 21.67° C | 67% | 1019.3 hPa | 0 mm | 0.89 m/s, 234° | - | - |
| 1777992889 | 21.11° C | 69% | 1019.4 hPa | 0 mm | 0 m/s | - | - |
| 1777992587 | 21.11° C | 70% | 1019.5 hPa | 0 mm | 0 m/s | - | - |
| 1777992285 | 20° C | 71% | 1019.6 hPa | 0 mm | 0 m/s | - | - |
| 1777991982 | 20° C | 72% | 1019.7 hPa | 0 mm | 1.34 m/s, 303° | - | - |
| 1777991680 | 20° C | 74% | 1019.6 hPa | 0 mm | 0.89 m/s, 289° | - | - |
| 1777991376 | 19.44° C | 75% | 1019.6 hPa | 0 mm | 0.45 m/s, 272° | - | - |
| 1777991073 | 19.44° C | 77% | 1019.5 hPa | 0 mm | 0 m/s | - | - |
| 1777990771 | 18.33° C | 79% | 1019.6 hPa | 0 mm | 0 m/s | - | - |
| 1777990468 | 18.33° C | 80% | 1019.6 hPa | 0 mm | 0.89 m/s, 311° | - | - |
| 1777990164 | 17.78° C | 81% | 1019.5 hPa | 0 mm | 0.89 m/s, 300° | - | - |
| 1777989856 | 17.78° C | 82% | 1019.3 hPa | 0 mm | 0.89 m/s, 318° | - | - |
* Rain latest hour (hover to see other rain measurements)
** Current wind speed in m/s (hover to see current wind gust speed)